EW6672 Weather Reports


time (UTC)temp
C
wind
direction
speed
KPH
gust
KPH
rain 1hr
cm
rain 24hr
cm
rain mn
cm
humidity
%
barometer
mb
20180622092021 22 135 1.6 8.0 0.00 0.10 0.00 72 919.6
20180622091019 22 135 3.2 9.7 0.00 0.10 0.00 76 919.7
20180622090020 21 135 3.2 8.0 0.00 0.10 0.00 81 919.8
20180622085020 21 0.0 4.8 0.00 0.10 0.00 76 919.7
20180622084019 21 135 1.6 4.8 0.00 0.10 0.00 74 919.6
20180622083019 20 0.0 1.6 0.00 0.10 0.00 79 919.7
20180622082019 20 0.0 0.0 0.00 0.10 0.00 71 919.6
20180622081019 19 0.0 1.6 0.00 0.10 0.00 82 919.6
20180622080019 18 0.0 1.6 0.00 0.10 0.00 81 919.6
20180622075020 18 0.0 3.2 0.00 0.10 0.00 85 919.5
20180622074021 18 0.0 0.0 0.00 0.10 0.00 91 919.6
20180622073020 17 0.0 0.0 0.00 0.10 0.00 90 919.6
20180622072021 17 0.0 1.6 0.00 0.10 0.00 92 919.5
20180622071020 16 0.0 1.6 0.00 0.10 0.00 93 919.5
20180622070020 16 0.0 0.0 0.00 0.10 0.00 95 919.7
20180622065021 16 0.0 0.0 0.00 0.10 0.00 96 919.7
20180622064020 15 0.0 0.0 0.00 0.10 0.00 97 919.6
20180622063021 15 0.0 1.6 0.00 0.10 0.00 97 919.7
20180622062019 15 0.0 1.6 0.00 0.10 0.00 98 919.6
20180622061020 15 0.0 0.0 0.00 0.10 0.00 98 919.6
20180622060019 14 0.0 0.0 0.00 0.10 0.00 98 919.6
20180622055020 14 0.0 0.0 0.00 0.10 0.00 98 919.6
20180622054020 14 0.0 0.0 0.00 0.10 0.00 98 919.5
20180622053020 14 0.0 0.0 0.00 0.10 0.00 98 919.4
20180622052021 13 0.0 0.0 0.00 0.10 0.00 98 919.4
20180622051020 13 0.0 0.0 0.00 0.10 0.00 98 919.5
20180622050021 13 0.0 0.0 0.00 0.10 0.00 98 919.5
20180622045021 13 0.0 0.0 0.00 0.10 0.00 98 919.3
20180622044020 13 0.0 0.0 0.00 0.10 0.00 98 919.3
20180622043020 13 0.0 0.0 0.00 0.10 0.00 98 919.3
20180622042020 13 0.0 0.0 0.00 0.10 0.00 98 919.3
20180622041020 13 0.0 0.0 0.00 0.10 0.00 98 919.3
20180622040022 13 0.0 0.0 0.00 0.10 0.00 97 919.3
20180622035020 13 0.0 0.0 0.00 0.10 0.00 97 919.3
20180622034020 13 0.0 0.0 0.00 0.10 0.00 97 919.3
20180622033020 12 0.0 0.0 0.00 0.10 0.00 97 919.2
20180622032020 12 0.0 0.0 0.00 0.10 0.00 97 919.5
20180622031020 12 0.0 0.0 0.00 0.10 0.00 97 919.5
20180622030020 13 0.0 0.0 0.00 0.10 0.00 96 919.5
20180622025020 13 0.0 0.0 0.00 0.10 0.00 96 919.4
20180622024020 13 0.0 0.0 0.00 0.10 0.00 96 919.4
20180622023020 13 0.0 0.0 0.00 0.10 0.00 96 919.4
20180622022020 13 0.0 0.0 0.00 0.10 0.00 96 919.5
20180622021020 13 0.0 0.0 0.00 0.10 0.00 96 919.6
20180622020020 13 0.0 0.0 0.00 0.10 0.00 97 919.5
20180622015020 13 0.0 0.0 0.00 0.10 0.00 96 919.6
20180622014021 13 0.0 0.0 0.00 0.10 0.00 96 919.5
20180622013020 13 0.0 0.0 0.00 0.10 0.00 96 919.5
20180622012020 13 0.0 0.0 0.00 0.10 0.00 96 919.5
20180622011021 13 0.0 0.0 0.00 0.10 0.00 96 919.6
20180622010020 13 0.0 0.0 0.00 0.10 0.00 96 919.7
20180622005021 13 0.0 0.0 0.00 0.10 0.00 96 919.7
20180622004021 13 0.0 0.0 0.00 0.10 0.00 95 919.6
20180622003020 13 0.0 0.0 0.00 0.10 0.00 95 919.7
20180622002020 13 0.0 0.0 0.00 0.10 0.00 95 919.7
20180622001020 13 0.0 0.0 0.00 0.10 0.00 95 919.9
20180622000020 13 0.0 0.0 0.00 0.10 0.00 95 920.0
20180621235021 13 0.0 0.0 0.00 0.10 0.00 96 920.0
20180621234020 13 0.0 0.0 0.00 0.10 0.00 96 920.0
20180621233021 13 0.0 0.0 0.00 0.10 0.00 96 920.0
20180621232020 13 0.0 0.0 0.00 0.10 0.00 96 920.0
20180621231019 13 0.0 0.0 0.00 0.10 0.00 96 920.1
20180621230020 13 0.0 0.0 0.00 0.10 0.00 96 920.1
20180621225020 13 0.0 0.0 0.00 0.10 0.00 96 920.1
20180621224020 12 0.0 0.0 0.00 0.10 0.00 97 920.2
20180621223020 12 0.0 0.0 0.00 0.10 0.00 96 920.2
20180621222021 12 0.0 0.0 0.00 0.10 0.00 97 920.3
20180621221020 12 0.0 0.0 0.00 0.10 0.00 96 920.3
20180621220020 12 0.0 0.0 0.00 0.10 0.00 96 920.3
20180621215020 12 0.0 0.0 0.00 0.10 0.10 96 920.5
20180621214019 12 0.0 0.0 0.00 0.10 0.10 96 920.6
20180621213020 12 0.0 0.0 0.00 0.10 0.10 95 920.6
20180621212020 12 0.0 0.0 0.00 0.10 0.10 95 920.7
20180621211020 12 0.0 0.0 0.00 0.10 0.10 94 920.7
20180621210020 12 0.0 0.0 0.00 0.10 0.10 94 920.9
20180621205020 12 0.0 0.0 0.00 0.10 0.10 94 921.0
20180621204019 12 0.0 1.6 0.00 0.10 0.10 96 921.1
20180621203023 12 0.0 1.6 0.00 0.10 0.10 94 921.3
20180621202020 12 0.0 0.0 0.00 0.10 0.10 94 921.2
20180621201020 12 0.0 1.6 0.00 0.10 0.10 94 921.3
20180621200019 12 0.0 1.6 0.00 0.10 0.10 93 921.2
20180621195020 12 0.0 0.0 0.00 0.10 0.10 92 921.2
20180621194019 13 0.0 0.0 0.00 0.10 0.10 90 921.2
20180621193019 13 0.0 0.0 0.00 0.10 0.10 90 921.1
20180621192020 13 0.0 0.0 0.00 0.10 0.10 91 920.9
20180621191021 13 0.0 0.0 0.00 0.10 0.10 89 920.7
20180621190019 13 0.0 0.0 0.00 0.10 0.10 88 920.7
20180621185021 14 0.0 0.0 0.00 0.10 0.10 88 920.5
20180621184020 15 0.0 0.0 0.00 0.10 0.10 85 920.5
20180621183020 15 0.0 0.0 0.00 0.10 0.10 83 920.4
20180621182021 16 0.0 1.6 0.00 0.10 0.10 80 920.4
20180621181020 16 0.0 0.0 0.00 0.10 0.10 79 920.4
20180621180020 17 0.0 1.6 0.00 0.10 0.10 75 920.3
20180621175020 17 0.0 3.2 0.00 0.10 0.10 75 920.3
20180621174020 17 0.0 0.0 0.00 0.10 0.10 78 920.5
20180621173020 17 0.0 4.8 0.00 0.10 0.10 77 920.7
20180621172020 17 0.0 3.2 0.00 0.10 0.10 77 920.9
20180621171019 18 0.0 3.2 0.00 0.10 0.10 77 920.9
20180621170020 18 0.0 3.2 0.00 0.10 0.10 77 921.0
20180621165020 18 135 1.6 6.4 0.00 0.10 0.10 78 921.0
20180621164020 18 0.0 4.8 0.00 0.10 0.10 77 920.9
20180621163020 18 270 1.6 4.8 0.00 0.10 0.10 77 920.6
20180621162021 18 0.0 3.2 0.00 0.10 0.10 82 920.6
20180621161020 18 0.0 0.0 0.00 0.10 0.10 81 920.5
20180621160019 18 0.0 4.8 0.00 0.10 0.10 81 920.5
20180621155020 18 0.0 3.2 0.00 0.10 0.10 80 920.7
20180621154020 18 22 3.2 11.3 0.00 0.10 0.10 75 920.8
20180621153020 18 22 6.4 17.7 0.00 0.10 0.10 74 921.0
20180621152026 20 22 3.2 19.3 0.00 0.10 0.10 72 921.2
20180621151020 22 0.0 0.0 0.00 0.10 0.10 76 920.9
20180621150020 21 0.0 1.6 0.00 0.10 0.10 74 920.8
20180621145020 21 0.0 6.4 0.00 0.10 0.10 79 920.9
20180621144019 21 135 1.6 8.0 0.00 0.10 0.10 78 921.2
20180621143019 22 135 3.2 11.3 0.00 0.10 0.10 75 921.1
20180621142019 22 135 3.2 11.3 0.00 0.10 0.10 71 921.0
20180621141020 23 135 3.2 12.9 0.00 0.10 0.10 71 921.1
20180621140019 23 90 3.2 11.3 0.00 0.10 0.10 70 921.1
20180621135019 23 112 4.8 12.9 0.00 0.10 0.10 69 921.0
20180621134019 23 135 4.8 12.9 0.00 0.10 0.10 70 921.0
20180621133020 23 112 3.2 11.3 0.00 0.10 0.10 66 921.0
20180621132019 23 135 3.2 8.0 0.00 0.10 0.10 64 921.0
20180621131022 23 135 3.2 9.7 0.00 0.10 0.10 67 921.3
20180621130020 23 112 4.8 12.9 0.00 0.10 0.10 69 921.3
20180621125020 23 135 4.8 12.9 0.00 0.10 0.10 70 921.3
20180621124020 22 135 3.2 17.7 0.00 0.10 0.10 70 921.4
20180621123020 22 112 4.8 11.3 0.00 0.10 0.10 69 921.4
20180621122020 22 112 4.8 11.3 0.00 0.10 0.10 73 921.3
20180621121020 22 135 4.8 12.9 0.00 0.10 0.10 73 921.4
20180621120020 22 135 3.2 12.9 0.00 0.10 0.10 75 921.6
20180621115020 22 135 3.2 14.5 0.03 0.10 0.10 78 921.7
20180621114022 21 135 3.2 11.3 0.08 0.10 0.10 86 921.6
20180621113019 20 0.0 1.6 0.10 0.10 0.10 92 921.8
20180621112020 19 0.0 1.6 0.10 0.10 0.10 92 922.3
20180621111020 18 0.0 0.0 0.10 0.10 0.10 94 922.5
20180621110019 18 0.0 1.6 0.08 0.08 0.08 92 922.5
20180621105020 19 0.0 1.6 0.08 0.08 0.08 90 922.7
20180621104019 19 0.0 3.2 0.00 0.00 0.00 87 922.5
20180621103019 20 0.0 4.8 0.00 0.00 0.00 83 922.5
20180621102019 20 135 1.6 4.8 0.00 0.00 0.00 82 922.5
20180621101019 21 135 3.2 11.3 0.00 0.00 0.00 79 922.6
20180621100018 21 135 3.2 8.0 0.00 0.00 0.00 76 922.4
20180621095019 22 135 4.8 16.1 0.00 0.00 0.00 70 922.6
20180621094019 23 112 4.8 16.1 0.00 0.00 0.00 69 922.6
20180621093018 23 135 3.2 12.9 0.00 0.00 0.00 68 922.8